945  
ASCA44 KEWX 290520  
RWRMX  
 
LATIN AMERICA AND CARIBBEAN REGIONAL WEATHER ROUNDUP  
NATIONAL WEATHER SERVICE AUSTIN/SAN ANTONIO TX  
1200 AM CDT MON MAY 29 2017  
 
NOTE: "FAIR" INDICATED FEW OR NO CLOUDS BELOW 12,000 FEET WITH NO  
SIGNIFICANT WEATHER AND/OR S TO VISIBILITY
.  
 
BAJA CALIFORNIA  
 
CITY SKY/WX TMP DP RH WIND PRES REMARKS
 
LA PAZ CLEAR 70 55 60 S10 29.88R  
MEXICALI CLEAR 86 30 13 W9 29.79R  
S.J. DEL CABO CLEAR 75 50 41 W3 29.86R  
TIJUANA CLOUDY 59 52 77 CALM 30.02R  
 
NORTHWESTERN MEXICO  
 
CITY SKY/WX TMP DP RH WIND PRES REMARKS
 
CULIACAN N/A N/A N/A N/A MISG N/A  
HERMOSILLO CLEAR 81 36 19 CALM 29.85R  
LOS MOCHIS N/A N/A N/A N/A MISG N/A  
 
NORTHEASTERN MEXICO  
 
CITY SKY/WX TMP DP RH WIND PRES REMARKS
 
MONCLOVA N/A N/A N/A N/A MISG N/A  
MONTERREY CLOUDY 82 72 69 E9 29.87R  
REYNOSA N/A N/A N/A N/A MISG N/A  
SALTILLO PTCLDY 73 50 43 N7 30.12R  
CD. VICTORIA N/A N/A N/A N/A MISG N/A  
 
WESTERN MEXICO  
 
CITY SKY/WX TMP DP RH WIND PRES REMARKS
 
AGUASCALIENTES CLEAR 66 52 59 SE6 30.18S  
COLIMA N/A N/A N/A N/A MISG N/A  
DEL BAJIO CLOUDY 70 45 40 E7 30.23R  
GUADALAJARA CLEAR 73 39 29 SW12 30.14S  
MAZATLAN PTCLDY 75 72 88 CALM 29.87R  
P. VALLARTA CLEAR 75 72 88 CALM 29.89R  
URUAPAN N/A N/A N/A N/A MISG N/A  
ZACATECAS MOCLDY 66 41 39 E17 30.29R  
 
CENTRAL MEXICO  
 
CITY SKY/WX TMP DP RH WIND PRES REMARKS
 
CUERNAVACA N/A N/A N/A N/A MISG N/A  
MEXICO CITY CLOUDY 66 48 52 S6 30.29R  
MORELIA CLOUDY 70 59 68 CALM 30.18R  
POZA RICA N/A N/A N/A N/A MISG N/A  
QUERETARO PTCLDY 70 52 52 SE5 30.24F  
S. LUIS POTOSI MOCLDY 68 54 60 S5 30.21R  
TAMPICO N/A N/A N/A N/A MISG N/A  
TOLUCA CLOUDY 54 50 87 W10 30.38R  
 
SOUTHERN MEXICO  
 
CITY SKY/WX TMP DP RH WIND PRES REMARKS
 
ACAPULCO CLOUDY 79 77 94 NW6 29.90R  
B. DE HUATULCO PTCLDY N/A N/A N/A MISG 29.95R  
P. ESCONDIDO N/A N/A N/A N/A MISG N/A  
VERACRUZ N/A N/A N/A N/A MISG N/A  
 
YUCATAN PENINSULA  
 
CITY SKY/WX TMP DP RH WIND PRES REMARKS
 
CAMPECHE N/A N/A N/A N/A MISG N/A  
CANCUN PTCLDY 81 75 83 E7 30.02R  
CHETUMAL CLEAR 82 75 78 SE8 29.96S  
CD. DEL CARMEN N/A N/A N/A N/A MISG N/A  
COZUMEL PTCLDY 79 73 83 E6 29.99S  
MERIDA MOCLDY 84 68 58 E12 29.97R  
MINATITLAN N/A N/A N/A N/A MISG N/A  
TAPACHULA HVY RAIN 75 75 100 W6 29.94R VSB 1/2  
TUX. GUTIERREZ LGT RAIN 70 68 94 CALM 30.03F  
 
CENTRAL AMERICA  
 
CITY SKY/WX TMP DP RH WIND PRES REMARKS
 
MANAGUA PTCLDY 81 72 74 SE7 29.92S  
 
CARIBBEAN  
 
CITY SKY/WX TMP DP RH WIND PRES REMARKS
 
KINGSTON PTCLDY 81 75 83 NW7 29.97F  
NASSAU PTCLDY 79 73 83 CALM 30.07F  
SAN JUAN MOCLDY 81 75 83 E6 30.06F  
SANTO DOMINGO PTCLDY 77 73 88 NE5 30.03S  
ST. CROIX PTCLDY 81 75 83 NE7 30.05  
ST. MAARTEN PTCLDY 81 79 94 E6 30.06S  
ST. THOMAS CLOUDY 81 75 83 E15 30.05F  
 

 
 
 
 
CLICK HERE TO GO TO PREVIOUS BULLETINS.

The Nexlab HPC Page Main Text Page